Zurück zum Katalog

FENGYUN 1C DEB

AktivSSO
NORAD 31272·DEBRIS·🇨🇳 China

Gestartet May 10, 1999 von Taiyuan Satellite Launch Center

Loading…

Nächste Überflüge (nächste 24 Stunden)

TLE

AktuellSource: Space-Track

Epoche: Sep 13, 2026, 09:35 UTC

1 31272U 99025BNE 26256.39993540  .00000719  00000-0  31747-3 0  9995
2 31272  99.0576 141.7651 0106887  46.4751 314.5247 14.23485193  8874

Verfolge FENGYUN 1C DEB in Echtzeit mit AllMySat

Download on the App Store